Find Galaxy 12

NORAD ID: 27715 Int'l Des: 2003-013 Owner: PAN Country: US operational
HEOCIRCULAR

リアルタイム位置

3D地球を読み込み中...

Galaxy 12について

説明を読み込み中...

次回通過

Passes for default location (London). Set your location on the main map for personalized predictions.

高度履歴

Loading altitude history...

軌道要素

1 27715U 03013B 26105.61933215 -.00000186 00000-0 00000+0 0 9998
2 27715 6.8289 69.9980 0005220 288.4266 242.5165 0.98987681 51347
Epoch: Apr 15, 2026 • Age: 24 hours

現在のステータス

高度 36163.1 km
速度 3.06 km/s
衛星直下点 2.14°N, 169.72°E
打ち上げ日 Apr 9, 2003
運用期間 23 years
タイプ other

技術仕様

分類 Payload
質量 1760.00 kg
乾燥質量 800.00 kg
総質量 1760.00 kg
長さ 3.30 m
直径 1.50 m
スパン 12.60 m
形状 Box + 2 Pan
製造者 OSCD
バスタイプ OSC Star 2
フェーズステータス Renamed
所有者/国 PAN/US

Most Searched